Starlink 35340

operational
NORAD ID: 66022 Int'l Des: 2025-232 Owner: SPXS Country: US Constellation: starlink
LEOCIRCULAR

About Starlink 35340

Description loading...

Live Position

Loading 3D Globe...

Upcoming Passes

Altitude History

Altitude vs Time

uPlot chart will show altitude changes over time

Two-Line Element Set

1 66022C 25232T 25290.41090278 .00994430 00000+0 13727-2 0 2903
2 66022 53.1575 58.9177 0008337 286.0584 206.5114 16.04283370 19
Epoch: Oct 17, 2025 • Age: 61 hours

Current Status

Altitude 259.9 km
Velocity 7.75 km/s
Sub-Earth Point 46.98°N, 41.54°W
Launch Date Oct 16, 2025
Age 3 days
Type internet

Technical Details

Classification Payload
Mass 575.00 kg
Dry Mass 530.00 kg
Total Mass 575.00 kg
Length 0.30 m
Diameter 4.10 m
Span 29.00 m
Shape Box + pan
Manufacturer SPXS
Bus Type Starlink V2MO
Phase Status In Orbit
Owner/State SPXS/US

Large Constellations

Loading constellations...